Hauptseite
METAR-TAF:

METAR-TAF

Flughäfen :

Bohrplattform

D15-fa-1, Niederlande

Breite: 54-19-32N, Länge: 2-56-09E, Höhe: 36 m

Beobachtung

Neuester Wetterbericht von vor 39 Minuten, um 12:55 UTC
Wind 14 kt aus West/Südwest, variierte zwischen Süd und West/Nordwest
Temperatur 11°C
Luftfeuchtigkeit 82%
Luftdruck 1015 hPa
Sichtweite 10 km oder mehr

METAR: EHDV 231255Z AUTO 24014KT 170V300 9999 NSC 11/08 Q1015 W///H///

Zeit: 15:34 (13:34 UTC)


TAF: fehlend

Wetterbeobachtungen und Prognosen von mehr als 4000 Flughäfen (METAR und TAF Bericht).

Die verfügbaren Stationen werden durch gelbe und rote Markierungen auf der Karte dargestellt.

Führen Sie die Maus auf sie, um den Namen der Station zu sehen.

Darauf klicken, um die Beobachtung von Wetterbeobachtungen und Prognosen zu sehen.

Um die Karte zu ändern : klicken Sie auf den grünen Tasten mit einem schwarzen Kreuz Zum Vergrößern, auf den grünen Button mit einem Gedankenstrich zu verkleinern, oder auf die grünen Pfeile für benachbarte Karten.


METAR-TAF: